QPF
0.00 0.00 0.00 0.01 0.01 0.01 0.02 0.02 0.02 0.01 0.01 0.01 0.01 0.02 0.03 0.03 0.03 0.03 0.04 0.04 0.03 0.02 0.01 0.01 0.01 0.00 0.01 0.03 0.05 0.08 0.07 0.05 0.03 0.02 0.02 0.02 0.02 0.03 0.03 0.04 0.04 0.05 0.06 0.06
0.00 0.01 0.01 0.01 0.01 0.01 0.01 0.02 0.01 0.01 0.01 0.01 0.02 0.04 0.04 0.04 0.04 0.04 0.03 0.05 0.04 0.01 0.01 0.01 0.01 0.00 0.01 0.02 0.04 0.08 0.07 0.05 0.03 0.02 0.02 0.02 0.03 0.04 0.03 0.04 0.05 0.05 0.05 0.06
0.00 0.00 0.01 0.01 0.00 0.01 0.01 0.01 0.01 0.02 0.03 0.03 0.03 0.06 0.06 0.05 0.04 0.04 0.03 0.06 0.06 0.02 0.01 0.01 0.00 0.00 0.01 0.02 0.02 0.04 0.04 0.05 0.04 0.02 0.02 0.02 0.03 0.04 0.05 0.04 0.04 0.04 0.04 0.05
0.00 0.00 0.00 0.00 0.00 0.01 0.01 0.01 0.01 0.03 0.06 0.06 0.04 0.08 0.11 0.09 0.04 0.04 0.04 0.05 0.06 0.02 0.02 0.02 0.01 0.01 0.02 0.02 0.01 0.01 0.02 0.03 0.03 0.02 0.02 0.01 0.02 0.03 0.03 0.04 0.03 0.04 0.04 0.05
0.00 0.00 0.00 0.00 0.00 0.01 0.01 0.01 0.02 0.02 0.08 0.08 0.06 0.07 0.08 0.09 0.06 0.03 0.02 0.04 0.03 0.02 0.02 0.01 0.01 0.01 0.02 0.01 0.01 0.01 0.02 0.04 0.04 0.03 0.02 0.02 0.02 0.02 0.03 0.03 0.04 0.05 0.05 0.05
0.00 0.00 0.00 0.00 0.00 0.00 0.00 0.02 0.01 0.01 0.04 0.09 0.07 0.08 0.07 0.10 0.11 0.04 0.02 0.03 0.02 0.02 0.02 0.01 0.01 0.02 0.02 0.02 0.02 0.02 0.03 0.05 0.05 0.05 0.03 0.02 0.02 0.02 0.02 0.03 0.03 0.03 0.04 0.05
0.00 0.00 0.00 0.01 0.00 0.00 0.00 0.00 0.01 0.02 0.04 0.07 0.05 0.07 0.05 0.09 0.07 0.04 0.03 0.03 0.03 0.03 0.02 0.02 0.01 0.01 0.01 0.02 0.03 0.03 0.04 0.04 0.04 0.04 0.03 0.02 0.03 0.04 0.03 0.03 0.03 0.02 0.02 0.04
0.00 0.00 0.00 0.00 0.00 0.00 0.00 0.00 0.01 0.02 0.03 0.05 0.07 0.05 0.04 0.04 0.03 0.03 0.03 0.02 0.03 0.04 0.04 0.04 0.04 0.03 0.02 0.02 0.02 0.03 0.03 0.04 0.03 0.03 0.03 0.04 0.04 0.04 0.04 0.04 0.06 0.05 0.04 0.03
0.00 0.01 0.01 0.00 0.00 0.00 0.00 0.00 0.00 0.01 0.03 0.05 0.07 0.07 0.06 0.04 0.02 0.02 0.02 0.01 0.01 0.02 0.03 0.04 0.06 0.06 0.04 0.03 0.03 0.04 0.04 0.03 0.03 0.02 0.02 0.03 0.03 0.03 0.03 0.04 0.05 0.06 0.05 0.03
0.00 0.00 0.00 0.00 0.00 0.00 0.00 0.00 0.00 0.01 0.03 0.05 0.06 0.08 0.06 0.04 0.02 0.01 0.01 0.01 0.01 0.01 0.02 0.03 0.05 0.07 0.07 0.05 0.04 0.04 0.05 0.04 0.03 0.03 0.03 0.03 0.03 0.03 0.03 0.04 0.04 0.04 0.04 0.04
0.00 0.00 0.00 0.00 0.00 0.00 0.00 0.00 0.00 0.01 0.02 0.04 0.04 0.04 0.03 0.04 0.03 0.02 0.01 0.01 0.01 0.02 0.02 0.05 0.06 0.05 0.04 0.04 0.05 0.04 0.04 0.04 0.04 0.03 0.03 0.03 0.03 0.04 0.04 0.04 0.04 0.04 0.04 0.04
0.00 0.00 0.00 0.00 0.00 0.00 0.00 0.00 0.00 0.00 0.01 0.01 0.02 0.03 0.05 0.06 0.03 0.01 0.01 0.01 0.02 0.02 0.02 0.04 0.07 0.08 0.06 0.04 0.03 0.03 0.04 0.05 0.07 0.08 0.06 0.03 0.04 0.05 0.04 0.03 0.03 0.04 0.04 0.05
0.00 0.00 0.00 0.00 0.00 0.00 0.00 0.00 0.00 0.00 0.00 0.01 0.02 0.05 0.09 0.07 0.02 0.01 0.01 0.01 0.02 0.02 0.02 0.04 0.08 0.08 0.08 0.07 0.04 0.03 0.04 0.05 0.05 0.05 0.05 0.02 0.03 0.04 0.03 0.03 0.02 0.04 0.05 0.07
0.00 0.00 0.00 0.00 0.00 0.00 0.00 0.00 0.00 0.00 0.00 0.01 0.01 0.02 0.05 0.03 0.02 0.01 0.01 0.01 0.01 0.02 0.03 0.03 0.04 0.05 0.05 0.05 0.04 0.03 0.04 0.04 0.03 0.04 0.03 0.02 0.02 0.03 0.02 0.02 0.02 0.04 0.05 0.06
0.00 0.00 0.00 0.00 0.00 0.00 0.00 0.00 0.00 0.00 0.00 0.00 0.01 0.01 0.02 0.02 0.01 0.02 0.02 0.02 0.02 0.02 0.03 0.03 0.03 0.03 0.04 0.04 0.03 0.03 0.03 0.03 0.02 0.02 0.02 0.02 0.01 0.02 0.03 0.03 0.03 0.05 0.07 0.07
0.00 0.00 0.00 0.00 0.00 0.00 0.00 0.00 0.00 0.00 0.00 0.00 0.01 0.01 0.02 0.02 0.02 0.01 0.02 0.03 0.02 0.02 0.02 0.03 0.03 0.04 0.06 0.05 0.06 0.05 0.03 0.03 0.03 0.02 0.02 0.02 0.01 0.02 0.02 0.03 0.05 0.07 0.09 0.08
0.00 0.00 0.00 0.00 0.00 0.00 0.00 0.00 0.00 0.00 0.00 0.01 0.01 0.01 0.01 0.01 0.01 0.01 0.01 0.02 0.03 0.03 0.02 0.02 0.04 0.05 0.06 0.07 0.08 0.08 0.05 0.05 0.05 0.04 0.03 0.02 0.02 0.02 0.03 0.08 0.13 0.12 0.10 0.09
0.00 0.00 0.00 0.01 0.01 0.01 0.01 0.00 0.00 0.00 0.01 0.02 0.01 0.02 0.02 0.02 0.02 0.02 0.02 0.03 0.02 0.02 0.01 0.01 0.01 0.01 0.01 0.03 0.04 0.08 0.06 0.04 0.05 0.05 0.04 0.03 0.03 0.03 0.03 0.05 0.09 0.12 0.11 0.09
0.00 0.00 0.01 0.01 0.00 0.00 0.01 0.01 0.01 0.01 0.02 0.01 0.01 0.02 0.03 0.03 0.05 0.07 0.07 0.06 0.03 0.01 0.01 0.01 0.01 0.01 0.01 0.02 0.03 0.07 0.10 0.06 0.05 0.06 0.06 0.05 0.05 0.06 0.07 0.05 0.06 0.08 0.10 0.10
0.00 0.00 0.01 0.01 0.01 0.01 0.01 0.01 0.01 0.02 0.04 0.03 0.03 0.03 0.03 0.03 0.07 0.08 0.06 0.04 0.02 0.02 0.02 0.01 0.01 0.02 0.01 0.02 0.02 0.05 0.10 0.12 0.12 0.13 0.13 0.14 0.14 0.14 0.14 0.13 0.12 0.12 0.14 0.15
0.00 0.00 0.00 0.01 0.01 0.03 0.02 0.01 0.01 0.03 0.06 0.04 0.04 0.03 0.03 0.03 0.04 0.05 0.05 0.05 0.03 0.03 0.02 0.02 0.02 0.02 0.03 0.03 0.03 0.05 0.07 0.10 0.11 0.12 0.14 0.15 0.17 0.18 0.16 0.14 0.13 0.11 0.10 0.10
0.01 0.01 0.01 0.02 0.03 0.05 0.03 0.02 0.03 0.05 0.06 0.07 0.05 0.04 0.03 0.03 0.03 0.04 0.05 0.07 0.07 0.07 0.05 0.04 0.02 0.02 0.03 0.03 0.04 0.05 0.07 0.09 0.11 0.12 0.13 0.14 0.15 0.15 0.12 0.11 0.12 0.11 0.09 0.07
0.04 0.03 0.03 0.05 0.06 0.06 0.06 0.06 0.05 0.05 0.07 0.07 0.08 0.07 0.07 0.06 0.06 0.06 0.07 0.07 0.10 0.10 0.07 0.05 0.03 0.02 0.02 0.03 0.04 0.06 0.07 0.08 0.10 0.11 0.12 0.13 0.14 0.16 0.15 0.11 0.09 0.08 0.08 0.08
0.04 0.04 0.04 0.03 0.04 0.04 0.04 0.04 0.05 0.07 0.09 0.09 0.09 0.09 0.07 0.06 0.06 0.05 0.04 0.03 0.02 0.02 0.02 0.03 0.04 0.03 0.03 0.04 0.06 0.09 0.10 0.12 0.14 0.14 0.11 0.08 0.07 0.08 0.09 0.08 0.06 0.05 0.05 0.05
0.03 0.04 0.04 0.04 0.03 0.03 0.03 0.03 0.05 0.07 0.08 0.07 0.06 0.04 0.03 0.02 0.01 0.01 0.01 0.01 0.01 0.01 0.01 0.02 0.05 0.06 0.04 0.05 0.09 0.12 0.13 0.13 0.12 0.09 0.06 0.04 0.03 0.05 0.06 0.05 0.04 0.03 0.02 0.02
0.02 0.02 0.02 0.03 0.03 0.04 0.04 0.04 0.04 0.03 0.03 0.03 0.03 0.02 0.02 0.01 0.01 0.01 0.01 0.01 0.01 0.01 0.01 0.01 0.02 0.02 0.02 0.03 0.07 0.11 0.11 0.10 0.08 0.05 0.04 0.02 0.02 0.03 0.04 0.04 0.03 0.03 0.02 0.02
MSLP
1008.54 1009.31 1009.81 1010.02 1010.01 1009.81 1009.52 1009.19 1008.87 1008.58 1008.30 1008.01 1007.71 1007.37 1007.03 1006.70 1006.45 1006.31 1006.33 1006.50 1006.82 1007.25 1007.72 1008.18 1008.57 1008.88 1009.10 1009.26 1009.40 1009.56 1009.79 1010.10 1010.49 1010.92 1011.37 1011.78 1012.11 1012.34 1012.47 1012.52 1012.53 1012.53 1012.56 1012.65
1009.20 1009.72 1009.97 1009.99 1009.84 1009.61 1009.38 1009.20 1009.06 1008.95 1008.82 1008.60 1008.28 1007.84 1007.32 1006.79 1006.34 1006.03 1005.93 1006.07 1006.41 1006.89 1007.45 1007.99 1008.45 1008.78 1009.00 1009.12 1009.22 1009.35 1009.58 1009.91 1010.35 1010.86 1011.39 1011.87 1012.25 1012.50 1012.62 1012.62 1012.57 1012.51 1012.48 1012.54
1009.49 1009.74 1009.74 1009.57 1009.34 1009.14 1009.04 1009.07 1009.20 1009.34 1009.41 1009.31 1009.01 1008.50 1007.83 1007.09 1006.41 1005.91 1005.67 1005.71 1006.01 1006.52 1007.13 1007.72 1008.22 1008.58 1008.80 1008.91 1008.98 1009.10 1009.33 1009.69 1010.18 1010.77 1011.37 1011.91 1012.34 1012.61 1012.73 1012.71 1012.61 1012.50 1012.44 1012.46
1009.43 1009.41 1009.19 1008.89 1008.63 1008.53 1008.64 1008.95 1009.39 1009.84 1010.15 1010.22 1009.97 1009.40 1008.59 1007.65 1006.74 1006.02 1005.58 1005.49 1005.71 1006.18 1006.78 1007.40 1007.91 1008.28 1008.49 1008.59 1008.65 1008.76 1008.99 1009.37 1009.91 1010.55 1011.22 1011.83 1012.31 1012.62 1012.74 1012.72 1012.61 1012.48 1012.40 1012.42
1009.10 1008.86 1008.48 1008.11 1007.91 1007.96 1008.33 1008.96 1009.75 1010.51 1011.08 1011.31 1011.12 1010.51 1009.57 1008.43 1007.30 1006.35 1005.71 1005.45 1005.55 1005.93 1006.49 1007.07 1007.57 1007.91 1008.10 1008.17 1008.21 1008.29 1008.52 1008.91 1009.48 1010.16 1010.88 1011.55 1012.08 1012.44 1012.61 1012.62 1012.53 1012.42 1012.36 1012.39
1008.64 1008.23 1007.77 1007.41 1007.32 1007.58 1008.23 1009.18 1010.29 1011.34 1012.14 1012.51 1012.37 1011.73 1010.66 1009.36 1008.03 1006.86 1006.03 1005.59 1005.54 1005.82 1006.28 1006.80 1007.24 1007.53 1007.67 1007.69 1007.68 1007.72 1007.92 1008.30 1008.86 1009.57 1010.32 1011.04 1011.64 1012.06 1012.29 1012.36 1012.33 1012.28 1012.27 1012.34
1008.19 1007.70 1007.22 1006.94 1006.99 1007.47 1008.37 1009.60 1010.96 1012.23 1013.19 1013.66 1013.54 1012.86 1011.70 1010.26 1008.77 1007.45 1006.45 1005.86 1005.69 1005.84 1006.20 1006.62 1006.97 1007.19 1007.24 1007.19 1007.10 1007.09 1007.22 1007.57 1008.11 1008.81 1009.58 1010.33 1010.98 1011.47 1011.78 1011.94 1012.00 1012.03 1012.09 1012.24
1007.87 1007.37 1006.94 1006.77 1006.97 1007.64 1008.73 1010.14 1011.66 1013.05 1014.07 1014.57 1014.44 1013.71 1012.49 1010.97 1009.40 1007.99 1006.90 1006.22 1005.94 1006.00 1006.25 1006.57 1006.82 1006.93 1006.88 1006.73 1006.56 1006.45 1006.52 1006.80 1007.29 1007.96 1008.72 1009.49 1010.17 1010.72 1011.11 1011.36 1011.52 1011.65 1011.81 1012.05
1007.75 1007.30 1006.97 1006.91 1007.26 1008.04 1009.24 1010.71 1012.25 1013.63 1014.62 1015.07 1014.89 1014.13 1012.89 1011.36 1009.79 1008.38 1007.28 1006.58 1006.26 1006.25 1006.42 1006.64 1006.78 1006.78 1006.64 1006.38 1006.11 1005.92 1005.90 1006.10 1006.53 1007.14 1007.87 1008.62 1009.32 1009.90 1010.35 1010.67 1010.92 1011.15 1011.41 1011.73
1007.83 1007.48 1007.27 1007.34 1007.77 1008.61 1009.79 1011.21 1012.65 1013.89 1014.75 1015.09 1014.84 1014.04 1012.82 1011.36 1009.88 1008.56 1007.55 1006.90 1006.60 1006.56 1006.69 1006.82 1006.87 1006.78 1006.53 1006.19 1005.84 1005.57 1005.47 1005.59 1005.94 1006.49 1007.15 1007.86 1008.53 1009.11 1009.58 1009.95 1010.26 1010.56 1010.89 1011.30
1008.07 1007.87 1007.80 1007.96 1008.43 1009.24 1010.32 1011.56 1012.79 1013.81 1014.46 1014.64 1014.30 1013.50 1012.35 1011.02 1009.70 1008.56 1007.70 1007.16 1006.93 1006.92 1007.01 1007.09 1007.07 1006.90 1006.59 1006.18 1005.77 1005.45 1005.30 1005.37 1005.65 1006.11 1006.70 1007.33 1007.93 1008.47 1008.91 1009.27 1009.59 1009.92 1010.30 1010.76
1008.43 1008.39 1008.45 1008.69 1009.16 1009.88 1010.78 1011.78 1012.72 1013.46 1013.87 1013.87 1013.46 1012.67 1011.63 1010.48 1009.38 1008.46 1007.79 1007.41 1007.26 1007.29 1007.37 1007.41 1007.34 1007.12 1006.77 1006.34 1005.92 1005.59 1005.42 1005.45 1005.68 1006.07 1006.57 1007.09 1007.59 1008.03 1008.39 1008.70 1008.98 1009.30 1009.69 1010.17
1008.86 1008.98 1009.16 1009.45 1009.89 1010.49 1011.19 1011.91 1012.55 1012.99 1013.16 1013.00 1012.52 1011.78 1010.87 1009.93 1009.06 1008.37 1007.90 1007.66 1007.61 1007.67 1007.74 1007.74 1007.63 1007.39 1007.03 1006.62 1006.24 1005.94 1005.80 1005.83 1006.03 1006.35 1006.75 1007.15 1007.52 1007.83 1008.07 1008.28 1008.49 1008.75 1009.11 1009.58
1009.32 1009.59 1009.86 1010.20 1010.60 1011.06 1011.55 1012.02 1012.37 1012.55 1012.51 1012.22 1011.71 1011.03 1010.27 1009.52 1008.88 1008.40 1008.10 1007.97 1007.98 1008.04 1008.08 1008.05 1007.90 1007.65 1007.32 1006.97 1006.65 1006.43 1006.35 1006.42 1006.61 1006.88 1007.18 1007.46 1007.69 1007.85 1007.94 1008.02 1008.13 1008.32 1008.62 1009.07
1009.81 1010.18 1010.53 1010.89 1011.24 1011.59 1011.91 1012.16 1012.29 1012.26 1012.06 1011.69 1011.18 1010.58 1009.96 1009.39 1008.92 1008.60 1008.41 1008.35 1008.36 1008.39 1008.38 1008.29 1008.11 1007.86 1007.57 1007.29 1007.08 1006.96 1006.97 1007.10 1007.30 1007.54 1007.76 1007.93 1008.02 1008.02 1007.98 1007.93 1007.93 1008.03 1008.28 1008.69
1010.31 1010.75 1011.14 1011.50 1011.81 1012.07 1012.26 1012.35 1012.32 1012.16 1011.87 1011.46 1010.98 1010.46 1009.96 1009.53 1009.19 1008.96 1008.83 1008.77 1008.73 1008.69 1008.59 1008.44 1008.22 1007.97 1007.73 1007.54 1007.44 1007.44 1007.56 1007.75 1007.98 1008.21 1008.37 1008.44 1008.41 1008.29 1008.12 1007.96 1007.87 1007.91 1008.11 1008.49
1010.84 1011.28 1011.67 1012.01 1012.28 1012.47 1012.57 1012.56 1012.45 1012.22 1011.89 1011.49 1011.06 1010.62 1010.22 1009.88 1009.61 1009.42 1009.28 1009.17 1009.05 1008.90 1008.70 1008.47 1008.21 1007.97 1007.77 1007.67 1007.68 1007.79 1008.01 1008.27 1008.54 1008.76 1008.89 1008.89 1008.78 1008.57 1008.33 1008.09 1007.95 1007.94 1008.12 1008.48
1011.36 1011.75 1012.09 1012.38 1012.60 1012.74 1012.79 1012.74 1012.59 1012.34 1012.03 1011.67 1011.29 1010.92 1010.58 1010.30 1010.05 1009.85 1009.66 1009.47 1009.24 1008.98 1008.69 1008.37 1008.08 1007.84 1007.69 1007.66 1007.76 1007.97 1008.26 1008.59 1008.89 1009.12 1009.23 1009.21 1009.06 1008.82 1008.54 1008.29 1008.13 1008.13 1008.30 1008.66
1011.85 1012.13 1012.38 1012.60 1012.76 1012.85 1012.87 1012.80 1012.65 1012.42 1012.14 1011.83 1011.50 1011.19 1010.89 1010.63 1010.38 1010.14 1009.89 1009.61 1009.28 1008.93 1008.55 1008.18 1007.86 1007.62 1007.51 1007.53 1007.69 1007.97 1008.32 1008.69 1009.02 1009.26 1009.37 1009.36 1009.21 1008.99 1008.73 1008.52 1008.40 1008.43 1008.62 1008.99
1012.25 1012.39 1012.53 1012.64 1012.73 1012.77 1012.77 1012.69 1012.56 1012.36 1012.12 1011.85 1011.57 1011.29 1011.02 1010.76 1010.49 1010.21 1009.90 1009.55 1009.16 1008.74 1008.31 1007.91 1007.58 1007.35 1007.26 1007.31 1007.51 1007.81 1008.19 1008.58 1008.92 1009.18 1009.32 1009.33 1009.24 1009.08 1008.89 1008.76 1008.71 1008.80 1009.04 1009.44
1012.53 1012.52 1012.52 1012.53 1012.54 1012.53 1012.49 1012.42 1012.29 1012.13 1011.92 1011.69 1011.44 1011.18 1010.91 1010.64 1010.36 1010.05 1009.70 1009.31 1008.89 1008.45 1008.00 1007.60 1007.28 1007.06 1006.98 1007.04 1007.24 1007.54 1007.91 1008.29 1008.64 1008.91 1009.09 1009.16 1009.15 1009.08 1009.01 1008.99 1009.05 1009.22 1009.52 1009.93
1012.64 1012.50 1012.37 1012.28 1012.21 1012.16 1012.09 1012.01 1011.89 1011.74 1011.55 1011.34 1011.10 1010.85 1010.58 1010.30 1010.01 1009.68 1009.33 1008.94 1008.53 1008.09 1007.68 1007.30 1006.99 1006.78 1006.70 1006.75 1006.91 1007.18 1007.51 1007.87 1008.20 1008.49 1008.71 1008.86 1008.95 1009.01 1009.08 1009.19 1009.36 1009.63 1009.99 1010.43
1012.59 1012.33 1012.12 1011.95 1011.82 1011.72 1011.63 1011.54 1011.42 1011.28 1011.10 1010.88 1010.64 1010.39 1010.11 1009.83 1009.53 1009.21 1008.88 1008.51 1008.13 1007.74 1007.36 1007.02 1006.73 1006.53 1006.43 1006.43 1006.55 1006.75 1007.02 1007.33 1007.65 1007.95 1008.22 1008.46 1008.67 1008.87 1009.08 1009.33 1009.63 1009.99 1010.41 1010.89
1012.37 1012.06 1011.78 1011.57 1011.40 1011.28 1011.18 1011.08 1010.97 1010.82 1010.64 1010.42 1010.17 1009.90 1009.62 1009.33 1009.04 1008.74 1008.43 1008.11 1007.77 1007.44 1007.10 1006.79 1006.51 1006.29 1006.15 1006.10 1006.14 1006.26 1006.45 1006.71 1007.00 1007.31 1007.63 1007.96 1008.29 1008.63 1009.00 1009.39 1009.81 1010.27 1010.75 1011.25
1012.04 1011.70 1011.41 1011.18 1011.01 1010.89 1010.79 1010.69 1010.58 1010.43 1010.25 1010.02 1009.77 1009.49 1009.20 1008.91 1008.63 1008.35 1008.07 1007.79 1007.50 1007.20 1006.90 1006.60 1006.32 1006.07 1005.88 1005.74 1005.69 1005.71 1005.82 1006.01 1006.28 1006.60 1006.97 1007.38 1007.83 1008.31 1008.82 1009.34 1009.88 1010.43 1010.97 1011.51
1011.62 1011.29 1011.02 1010.81 1010.66 1010.55 1010.47 1010.40 1010.29 1010.16 1009.98 1009.75 1009.49 1009.21 1008.92 1008.63 1008.36 1008.09 1007.84 1007.58 1007.33 1007.05 1006.76 1006.46 1006.15 1005.85 1005.58 1005.36 1005.21 1005.13 1005.16 1005.29 1005.52 1005.85 1006.26 1006.76 1007.31 1007.91 1008.54 1009.18 1009.83 1010.46 1011.06 1011.63
Thickness
5829 5811 5799 5807 5814 5812 5809 5802 5799 5811 5829 5819 5809 5806 5810 5815 5812 5808 5805 5804 5801 5802 5804 5803 5800 5799 5795 5791 5788 5785 5782 5781 5779 5776 5774 5771 5769 5770 5770 5770 5770 5770 5770 5769
5807 5801 5820 5828 5826 5819 5810 5800 5800 5812 5826 5816 5803 5802 5810 5814 5812 5812 5809 5806 5804 5802 5800 5800 5799 5797 5794 5790 5788 5785 5783 5781 5780 5778 5776 5774 5771 5770 5770 5770 5770 5770 5770 5769
5799 5814 5833 5826 5817 5811 5807 5802 5802 5804 5812 5813 5801 5789 5797 5807 5813 5813 5812 5810 5809 5806 5801 5800 5798 5796 5794 5791 5788 5787 5784 5782 5781 5779 5777 5774 5771 5769 5767 5767 5768 5769 5769 5769
5808 5825 5826 5819 5815 5814 5800 5821 5818 5811 5793 5779 5788 5759 5782 5794 5797 5803 5806 5807 5807 5807 5804 5801 5798 5795 5794 5793 5791 5789 5785 5783 5781 5779 5775 5772 5767 5764 5765 5766 5767 5768 5768 5767
5805 5822 5819 5814 5821 5824 5815 5828 5818 5809 5791 5775 5776 5761 5769 5787 5785 5795 5803 5807 5807 5807 5805 5802 5800 5797 5796 5794 5791 5788 5785 5782 5779 5777 5775 5771 5768 5767 5766 5766 5765 5765 5766 5766
5817 5833 5831 5828 5835 5834 5829 5816 5804 5790 5772 5751 5763 5758 5758 5777 5787 5794 5801 5806 5807 5807 5805 5802 5801 5798 5795 5793 5790 5787 5783 5780 5778 5776 5774 5771 5768 5766 5764 5762 5762 5762 5763 5764
5801 5817 5833 5838 5820 5822 5816 5784 5756 5748 5736 5740 5765 5760 5764 5793 5803 5804 5803 5804 5806 5806 5804 5801 5797 5795 5792 5789 5787 5784 5780 5777 5777 5775 5773 5771 5769 5767 5764 5762 5761 5760 5759 5760
5778 5783 5816 5830 5821 5808 5806 5787 5753 5736 5730 5740 5760 5755 5776 5803 5809 5812 5809 5807 5806 5804 5803 5801 5798 5795 5792 5789 5785 5782 5778 5776 5775 5774 5772 5771 5769 5766 5764 5763 5761 5760 5758 5758
5777 5782 5820 5833 5837 5824 5803 5788 5784 5756 5746 5736 5745 5761 5781 5800 5801 5803 5803 5802 5801 5801 5800 5798 5797 5794 5792 5788 5785 5782 5778 5775 5773 5772 5771 5769 5768 5765 5763 5762 5761 5759 5758 5758
5793 5783 5805 5824 5830 5825 5816 5799 5772 5752 5732 5725 5737 5748 5755 5777 5783 5790 5793 5794 5795 5796 5796 5795 5794 5793 5791 5788 5786 5782 5779 5775 5773 5771 5770 5769 5766 5765 5763 5761 5759 5757 5756 5756
5797 5778 5786 5801 5800 5797 5800 5791 5772 5752 5745 5726 5722 5740 5782 5783 5787 5787 5789 5791 5792 5791 5791 5790 5791 5791 5789 5786 5783 5780 5776 5773 5770 5768 5767 5765 5763 5762 5761 5759 5757 5755 5754 5753
5794 5773 5765 5783 5806 5816 5804 5792 5772 5751 5742 5737 5729 5742 5793 5791 5792 5790 5788 5789 5789 5788 5788 5787 5786 5784 5782 5781 5779 5777 5774 5770 5767 5765 5763 5761 5759 5758 5756 5755 5754 5753 5751 5750
5791 5766 5748 5756 5773 5793 5793 5793 5781 5764 5746 5734 5728 5745 5788 5788 5786 5786 5786 5785 5783 5782 5781 5780 5779 5777 5776 5775 5774 5772 5770 5768 5766 5762 5759 5756 5755 5753 5752 5751 5750 5749 5748 5746
5797 5763 5751 5745 5754 5773 5778 5786 5784 5764 5742 5736 5743 5752 5769 5775 5776 5778 5779 5779 5778 5776 5775 5773 5771 5770 5770 5769 5768 5767 5765 5763 5761 5758 5754 5751 5750 5750 5748 5747 5746 5745 5744 5742
5784 5761 5766 5768 5778 5782 5780 5781 5782 5771 5760 5749 5753 5756 5764 5772 5774 5774 5775 5773 5772 5770 5769 5768 5766 5764 5763 5762 5761 5761 5760 5758 5756 5753 5749 5747 5747 5745 5744 5742 5740 5739 5738 5737
5770 5760 5761 5760 5773 5775 5773 5778 5779 5775 5770 5764 5760 5757 5771 5773 5772 5769 5768 5768 5766 5765 5764 5763 5762 5760 5758 5756 5755 5754 5753 5752 5751 5747 5744 5743 5741 5739 5738 5736 5735 5733 5731 5730
5756 5750 5741 5737 5755 5759 5749 5765 5770 5767 5769 5764 5751 5757 5766 5763 5763 5763 5763 5763 5762 5761 5760 5758 5756 5756 5755 5753 5751 5748 5746 5746 5744 5742 5740 5738 5736 5734 5732 5732 5729 5726 5725 5723
5750 5740 5726 5726 5736 5724 5746 5773 5776 5767 5764 5767 5763 5762 5764 5763 5762 5763 5762 5759 5756 5756 5755 5754 5753 5751 5750 5749 5747 5744 5741 5738 5736 5735 5734 5733 5730 5728 5726 5724 5722 5720 5719 5717
5754 5739 5723 5713 5713 5723 5748 5763 5764 5753 5747 5760 5757 5756 5756 5757 5753 5750 5756 5756 5751 5751 5750 5750 5749 5748 5746 5743 5741 5738 5734 5731 5729 5728 5727 5727 5725 5721 5719 5717 5714 5713 5711 5709
5744 5737 5720 5711 5709 5707 5731 5758 5767 5754 5730 5751 5753 5748 5748 5746 5728 5733 5747 5748 5745 5745 5745 5744 5743 5741 5737 5736 5734 5730 5726 5724 5721 5720 5720 5719 5718 5715 5712 5710 5708 5706 5704 5701
5720 5717 5711 5705 5703 5712 5739 5755 5757 5724 5722 5744 5746 5744 5742 5736 5734 5738 5740 5739 5738 5738 5738 5737 5735 5731 5729 5728 5726 5721 5719 5717 5716 5714 5712 5711 5710 5708 5706 5704 5701 5699 5696 5694
5707 5702 5700 5697 5693 5703 5740 5744 5732 5727 5737 5740 5740 5739 5736 5734 5734 5733 5731 5731 5731 5729 5729 5729 5726 5723 5722 5722 5719 5714 5712 5712 5710 5707 5705 5703 5702 5701 5700 5696 5694 5691 5688 5685
5708 5708 5703 5703 5705 5724 5735 5737 5738 5737 5733 5733 5733 5733 5731 5728 5726 5725 5722 5722 5723 5722 5721 5721 5718 5715 5714 5714 5712 5708 5707 5706 5703 5700 5698 5696 5694 5693 5691 5688 5686 5684 5681 5678
5710 5715 5707 5704 5712 5722 5728 5731 5732 5735 5733 5732 5731 5730 5728 5723 5720 5718 5714 5712 5713 5714 5713 5712 5709 5706 5705 5705 5704 5702 5701 5699 5696 5693 5690 5688 5687 5685 5684 5681 5679 5676 5674 5671
5706 5707 5699 5699 5708 5714 5719 5723 5726 5727 5728 5727 5727 5726 5723 5719 5715 5711 5707 5705 5705 5705 5704 5703 5700 5698 5697 5697 5696 5695 5694 5691 5688 5686 5684 5682 5681 5678 5676 5674 5673 5671 5669 5666
5701 5699 5693 5693 5704 5704 5708 5717 5721 5719 5718 5719 5718 5716 5716 5715 5709 5706 5701 5699 5698 5697 5696 5694 5692 5690 5690 5689 5688 5687 5686 5683 5680 5677 5676 5675 5673 5671 5669 5666 5664 5663 5662 5660